Temp
13 13 13 13 13 13 13 13 13 13 13 13 13 13 13 13 13 13 13 13 13 13 13 13 13 13 13 13 13 13 13 13 12 12 12 12 13 13 13 12 12 12
14 13 13 13 13 13 13 13 13 13 13 13 13 13 13 13 13 13 13 13 13 13 13 13 13 13 13 13 13 13 13 13 12 12 12 12 12 12 13 12 12 12
14 13 13 13 13 13 13 13 13 13 13 13 13 13 13 13 13 13 13 13 13 13 13 13 13 13 13 13 13 13 13 13 13 13 12 12 12 12 12 12 12 12
15 14 14 13 13 13 13 13 13 13 13 13 13 13 13 12 12 13 13 13 13 13 13 13 13 13 13 13 13 13 13 13 13 13 13 12 12 12 12 12 12 12
15 15 14 14 13 13 12 13 13 13 13 13 13 13 13 13 12 13 13 13 13 13 13 13 13 13 13 13 13 13 13 13 13 13 13 12 12 12 12 12 12 12
14 14 14 13 13 12 12 13 13 13 13 13 13 13 13 13 13 13 13 13 13 13 13 13 13 13 13 13 13 13 13 13 13 13 13 12 12 12 12 12 12 12
13 13 13 13 12 12 13 13 13 12 13 13 13 13 13 13 13 13 13 13 13 13 13 13 13 13 13 13 13 13 13 13 13 12 12 12 12 12 12 12 12 12
13 13 12 12 12 12 13 13 13 12 12 13 13 13 13 13 13 12 12 12 12 13 13 13 13 13 13 13 13 13 13 13 12 12 12 12 12 12 12 12 12 12
12 12 12 13 13 13 13 13 13 13 12 12 13 13 13 13 13 12 12 12 12 12 13 13 13 13 13 13 13 13 13 13 13 12 12 12 12 12 12 12 12 12
12 12 13 13 13 13 13 13 13 13 12 12 13 12 12 12 12 12 12 12 12 12 13 13 13 13 13 13 13 13 13 13 13 13 12 12 12 12 12 12 12 12
12 12 12 13 12 12 12 13 13 13 12 12 12 12 12 12 12 12 12 12 12 12 12 12 12 13 13 13 13 13 13 13 13 13 12 12 12 12 12 12 12 12
12 12 12 12 12 12 12 12 12 12 12 12 12 12 12 12 12 12 12 12 12 12 12 12 12 12 12 12 12 12 12 12 12 12 12 12 12 12 12 12 12 12
12 12 12 12 12 12 12 12 12 12 12 12 12 12 12 12 12 12 12 12 12 12 12 12 12 12 12 12 12 12 12 12 12 12 12 12 12 12 11 11 12 12
12 12 12 12 12 12 12 12 12 12 12 12 12 12 12 12 12 11 12 12 12 11 11 12 12 12 12 12 12 12 12 12 12 12 12 12 12 11 11 11 11 11
11 12 12 12 12 12 11 12 12 12 12 13 12 11 12 12 12 11 12 12 12 11 11 12 12 12 12 12 12 12 12 12 12 12 12 12 12 11 11 11 11 12
10 11 11 11 12 12 11 12 12 12 12 13 12 11 11 12 12 11 12 12 12 11 11 11 11 12 12 12 12 12 12 12 12 12 12 12 12 12 12 12 12 12
10 10 10 11 11 11 11 11 12 12 12 12 12 12 11 12 12 12 12 12 12 12 11 11 11 12 11 12 12 12 12 12 12 12 12 12 12 12 12 12 12 12
10 10 10 11 11 11 11 11 11 12 12 12 12 12 11 11 12 12 12 12 12 11 11 11 11 11 11 12 12 12 12 12 12 12 12 12 12 12 11 11 11 11
10 9 10 10 10 10 11 11 11 12 12 12 12 12 11 11 12 12 12 12 12 11 11 11 11 11 11 12 12 12 12 12 12 12 12 12 12 12 11 11 11 11
9 9 10 10 10 10 11 11 11 11 12 12 11 11 11 11 12 12 12 12 12 11 11 11 12 12 11 12 12 12 12 12 12 12 12 12 12 12 11 11 11 11
9 9 10 10 10 10 10 11 11 11 11 11 11 11 11 12 12 12 12 12 12 12 12 11 12 12 11 12 12 12 12 12 12 12 12 12 12 12 11 11 11 11
9 9 9 10 10 10 10 11 11 11 11 11 11 11 12 12 12 12 12 12 12 12 12 12 12 12 12 12 12 12 12 12 12 12 12 12 12 11 11 11 11 11
8 8 9 9 9 9 10 10 10 10 11 11 11 11 12 11 12 12 11 12 12 12 12 12 12 12 11 11 11 11 12 11 11 12 12 12 12 11 11 11 11 11
8 7 8 9 9 9 9 10 10 10 10 10 11 11 11 11 11 11 11 11 11 11 11 12 12 11 11 11 11 11 11 11 11 11 11 11 11 11 11 11 11 11
7 7 7 7 7 8 8 9 9 9 9 10 10 10 11 10 10 11 11 11 11 11 11 11 11 11 11 11 11 11 11 11 11 11 11 11 11 10 10 10 10 10
7 7 7 7 6 6 7 7 9 9 9 9 9 10 10 10 9 10 10 10 10 10 10 10 11 10 10 10 10 10 10 11 11 11 11 10 10 9 9 9 9 9
Height
1509 1511 1512 1513 1512 1512 1514 1515 1516 1518 1520 1522 1523 1525 1526 1527 1527 1528 1528 1529 1530 1531 1532 1533 1535 1536 1537 1538 1539 1541 1542 1543 1544 1545 1546 1547 1548 1549 1549 1551 1552 1553
1507 1508 1510 1511 1510 1510 1512 1513 1515 1517 1519 1521 1522 1524 1525 1526 1526 1527 1527 1528 1529 1530 1531 1532 1533 1535 1536 1537 1538 1539 1541 1542 1543 1544 1545 1546 1547 1548 1549 1550 1551 1552
1505 1505 1506 1507 1508 1509 1510 1511 1513 1515 1517 1520 1521 1522 1523 1524 1525 1525 1526 1527 1528 1529 1530 1531 1533 1533 1535 1536 1537 1538 1539 1541 1542 1543 1544 1545 1546 1547 1548 1549 1551 1552
1503 1503 1503 1505 1506 1507 1509 1509 1511 1513 1515 1517 1519 1521 1522 1523 1524 1524 1525 1526 1527 1528 1529 1530 1531 1532 1534 1535 1536 1537 1538 1540 1541 1542 1543 1544 1545 1546 1547 1548 1549 1551
1501 1501 1501 1503 1504 1506 1507 1508 1509 1512 1513 1516 1518 1519 1521 1521 1522 1523 1524 1525 1525 1527 1528 1529 1530 1531 1533 1534 1535 1536 1537 1539 1540 1541 1542 1543 1544 1545 1546 1547 1548 1550
1499 1499 1500 1502 1503 1504 1506 1507 1509 1511 1512 1515 1517 1518 1519 1520 1521 1522 1522 1523 1524 1525 1526 1527 1529 1530 1531 1533 1534 1535 1536 1538 1539 1540 1541 1542 1543 1544 1545 1546 1547 1549
1497 1498 1499 1501 1503 1504 1505 1507 1508 1510 1512 1514 1515 1516 1517 1518 1520 1521 1522 1523 1524 1525 1525 1526 1528 1529 1530 1531 1533 1534 1535 1537 1538 1539 1540 1541 1542 1543 1544 1545 1547 1548
1496 1497 1498 1500 1502 1504 1505 1505 1506 1509 1511 1513 1514 1515 1516 1517 1519 1520 1522 1523 1523 1524 1525 1526 1527 1528 1529 1530 1532 1533 1534 1536 1537 1538 1539 1540 1541 1543 1544 1545 1546 1547
1495 1495 1496 1498 1499 1501 1503 1504 1504 1506 1509 1512 1513 1514 1515 1516 1518 1519 1521 1522 1523 1524 1525 1525 1526 1527 1528 1530 1531 1532 1533 1535 1536 1537 1538 1540 1541 1542 1544 1545 1546 1547
1494 1494 1495 1495 1496 1498 1500 1502 1504 1505 1507 1510 1512 1513 1514 1515 1517 1518 1520 1521 1522 1523 1524 1524 1525 1526 1528 1529 1530 1531 1532 1534 1535 1536 1538 1539 1541 1542 1543 1544 1545 1547
1492 1493 1494 1494 1495 1497 1499 1501 1502 1504 1506 1508 1510 1512 1514 1515 1516 1517 1518 1519 1521 1522 1523 1524 1525 1526 1527 1528 1529 1531 1532 1533 1534 1536 1537 1539 1540 1542 1543 1544 1546 1547
1490 1491 1492 1494 1495 1497 1498 1500 1501 1503 1505 1507 1509 1511 1513 1514 1515 1515 1516 1518 1519 1520 1522 1523 1524 1525 1526 1528 1529 1530 1531 1533 1534 1536 1537 1539 1540 1541 1542 1544 1545 1546
1489 1489 1490 1491 1492 1494 1496 1498 1500 1502 1503 1506 1508 1510 1511 1512 1513 1514 1515 1516 1517 1519 1521 1523 1524 1525 1526 1527 1529 1530 1531 1532 1534 1535 1537 1538 1539 1540 1541 1542 1543 1544
1486 1486 1486 1488 1490 1491 1492 1495 1497 1498 1500 1503 1506 1508 1510 1511 1512 1513 1513 1514 1515 1517 1520 1523 1524 1525 1526 1527 1528 1529 1531 1532 1533 1535 1536 1537 1538 1539 1540 1541 1543 1544
1484 1484 1484 1486 1489 1489 1490 1492 1495 1496 1497 1500 1503 1506 1508 1509 1511 1512 1512 1512 1514 1516 1519 1521 1523 1524 1526 1527 1528 1529 1530 1531 1533 1534 1536 1536 1537 1538 1539 1540 1542 1543
1482 1482 1483 1484 1487 1488 1488 1490 1493 1494 1495 1499 1502 1505 1507 1508 1510 1511 1511 1512 1513 1515 1518 1520 1522 1524 1525 1526 1527 1528 1529 1531 1532 1534 1535 1536 1536 1537 1538 1539 1541 1543
1481 1481 1481 1482 1484 1485 1486 1488 1491 1493 1494 1497 1501 1504 1506 1507 1509 1510 1511 1511 1513 1515 1517 1520 1522 1523 1524 1525 1527 1528 1529 1530 1532 1533 1534 1536 1536 1537 1538 1539 1541 1543
1479 1479 1479 1479 1480 1482 1484 1486 1489 1492 1493 1495 1499 1501 1504 1506 1508 1509 1510 1511 1513 1515 1517 1519 1521 1522 1524 1525 1526 1527 1528 1530 1531 1533 1534 1535 1536 1537 1538 1540 1541 1543
1478 1478 1478 1477 1478 1479 1481 1484 1487 1490 1492 1494 1497 1500 1502 1505 1507 1508 1510 1511 1512 1515 1517 1518 1520 1521 1523 1524 1525 1526 1528 1529 1531 1532 1534 1535 1536 1537 1539 1540 1541 1543
1477 1476 1476 1477 1477 1477 1479 1482 1485 1488 1490 1492 1495 1498 1500 1503 1506 1507 1509 1510 1512 1514 1516 1518 1519 1521 1523 1524 1525 1526 1527 1529 1531 1532 1534 1535 1536 1538 1539 1540 1542 1543
1477 1476 1476 1476 1476 1476 1478 1481 1484 1487 1489 1491 1494 1496 1499 1502 1504 1506 1507 1509 1511 1513 1515 1517 1518 1520 1522 1524 1525 1526 1527 1528 1530 1531 1533 1535 1536 1537 1539 1540 1542 1543
1478 1478 1477 1477 1477 1477 1478 1480 1483 1485 1488 1490 1492 1495 1497 1500 1503 1505 1507 1508 1510 1512 1514 1516 1517 1519 1521 1523 1524 1526 1527 1528 1529 1531 1533 1534 1535 1537 1538 1540 1541 1543
1480 1480 1479 1478 1478 1478 1478 1480 1482 1484 1487 1490 1492 1493 1496 1498 1500 1503 1506 1507 1509 1511 1513 1515 1517 1518 1520 1522 1523 1525 1526 1527 1529 1531 1533 1534 1535 1537 1538 1539 1540 1542
1483 1482 1481 1480 1480 1479 1479 1480 1482 1484 1487 1490 1491 1493 1496 1498 1499 1502 1505 1507 1509 1511 1513 1514 1516 1518 1519 1521 1523 1524 1525 1527 1529 1531 1532 1534 1535 1536 1537 1539 1540 1541
1487 1486 1485 1483 1482 1482 1481 1480 1482 1485 1488 1490 1491 1493 1497 1499 1500 1502 1504 1506 1509 1511 1512 1514 1515 1517 1519 1521 1522 1524 1525 1527 1528 1530 1531 1533 1534 1535 1536 1537 1539 1540
1492 1490 1489 1488 1487 1486 1485 1483 1484 1488 1490 1493 1494 1496 1498 1501 1502 1502 1504 1506 1509 1511 1512 1514 1515 1517 1519 1521 1522 1524 1525 1527 1528 1529 1530 1532 1533 1533 1535 1536 1538 1539
Wind_Speed
26 25 24 24 21 17 16 18 18 20 22 22 21 21 20 20 20 19 19 19 18 17 17 17 17 17 17 17 17 16 16 16 15 15 15 15 14 14 14 13 13 13
25 24 23 22 20 17 17 18 18 20 22 22 22 22 21 21 19 17 17 18 18 17 17 17 17 17 17 17 17 16 16 16 15 16 16 15 15 15 14 13 12 13
21 23 23 21 20 18 18 18 19 20 22 22 23 23 22 20 18 16 17 18 18 18 17 17 17 17 17 16 16 16 16 16 16 16 16 16 16 15 15 14 13 13
17 20 23 23 21 20 19 19 20 22 23 24 25 23 20 18 16 16 17 19 19 19 18 17 16 17 16 16 16 16 16 16 16 16 17 17 17 16 16 15 14 14
15 18 22 24 22 21 21 21 22 23 24 26 25 22 19 17 17 17 18 18 18 18 18 18 17 17 16 16 16 16 16 16 16 16 17 17 17 16 15 15 15 14
16 16 20 23 21 21 22 22 23 24 26 26 24 22 20 18 17 18 18 17 18 18 18 18 18 18 17 16 16 16 15 15 16 17 17 17 16 15 15 15 15 15
16 15 18 20 20 20 22 22 23 25 27 25 23 23 22 19 18 19 18 18 18 18 18 19 19 19 18 17 16 16 16 16 16 17 16 16 15 15 15 15 15 15
14 14 17 19 19 21 23 23 24 26 27 25 24 23 21 18 18 20 19 19 19 18 18 18 19 19 19 18 17 17 16 16 17 17 16 15 15 15 15 16 15 14
13 14 17 19 20 23 25 25 26 28 26 24 23 22 20 19 20 21 20 20 19 18 18 18 19 19 19 18 18 17 17 17 17 16 15 15 15 14 15 16 15 15
16 16 17 20 22 26 27 27 27 27 25 23 23 21 20 20 21 21 20 20 19 18 18 19 19 19 19 19 19 17 17 16 15 15 15 13 13 13 14 15 16 16
18 17 18 21 23 26 28 28 27 27 26 24 23 23 22 21 21 21 20 20 19 18 19 20 19 18 18 18 18 17 16 16 14 14 12 10 10 11 12 14 15 16
18 18 19 21 23 26 28 29 28 27 27 25 25 25 23 21 22 22 22 21 18 18 20 20 19 18 18 17 17 17 16 15 14 12 10 8 7 9 11 13 15 17
18 18 20 21 23 26 29 30 29 28 26 25 26 26 24 22 23 23 23 20 19 20 22 20 20 20 18 17 17 16 15 14 14 12 9 7 7 9 11 13 16 19
18 20 21 21 22 26 30 31 30 29 27 27 29 29 25 23 24 24 23 21 22 24 24 22 21 21 19 17 16 15 14 14 15 12 10 8 8 9 10 11 14 16
15 18 21 22 23 28 32 32 31 30 28 29 32 31 27 24 25 24 22 22 26 27 25 24 23 22 20 18 16 15 15 15 15 13 11 9 9 10 11 11 11 12
12 14 18 20 24 30 34 33 32 31 29 28 30 31 29 27 25 23 21 23 27 28 27 26 24 23 21 19 17 17 16 16 15 13 12 11 9 10 11 12 12 12
12 12 13 16 21 30 35 33 32 31 29 28 30 32 31 29 26 24 22 23 27 29 28 27 25 23 21 20 20 19 18 16 15 14 13 12 10 9 10 13 15 14
12 12 12 14 18 27 34 33 32 30 28 28 31 33 32 29 27 26 24 23 26 28 27 26 25 23 20 19 19 20 20 18 16 15 15 13 10 10 12 14 15 15
13 13 13 12 15 25 32 33 32 31 29 30 33 34 33 30 28 27 25 24 25 26 24 24 24 22 19 16 16 18 21 19 17 17 17 14 11 11 13 14 14 14
15 12 13 12 15 23 30 31 32 32 32 33 33 34 33 31 29 29 26 24 26 26 23 23 23 21 20 16 14 16 19 19 17 18 18 16 15 14 14 14 14 14
14 9 12 13 16 22 28 30 33 34 33 34 34 34 33 31 30 29 28 26 26 26 23 22 21 21 21 18 15 15 18 18 17 18 19 19 18 17 17 16 15 15
11 8 12 15 17 23 28 30 33 35 33 33 35 35 34 34 32 30 28 27 27 26 25 23 22 22 22 20 17 16 17 18 18 18 20 20 19 19 20 18 18 17
9 6 10 15 18 23 28 31 32 34 33 31 33 35 34 34 34 30 28 27 26 26 25 24 23 24 23 22 19 16 17 19 19 18 19 19 19 20 20 20 19 18
9 3 6 13 16 19 26 29 30 31 32 32 33 35 33 31 31 29 27 26 26 26 26 25 25 24 23 22 21 17 17 19 19 19 19 19 20 21 21 21 20 18
15 10 4 5 13 18 23 26 27 27 30 31 32 32 30 28 28 28 28 28 27 27 26 25 25 24 23 21 20 18 17 18 19 19 20 21 22 23 22 19 18 16
21 20 18 12 7 12 20 25 26 25 24 23 24 26 27 28 28 29 29 29 28 27 27 26 25 25 23 20 19 18 17 17 18 19 21 22 22 22 19 13 9 8
Wind_Direction
246 242 241 241 235 228 224 222 221 219 213 214 215 210 209 208 203 201 199 197 198 197 196 197 197 200 201 202 202 203 206 208 211 211 213 216 218 222 224 224 229 233
249 248 243 241 237 230 223 220 221 219 214 214 213 208 208 208 205 203 201 198 199 199 198 199 201 203 203 204 203 203 205 208 210 211 213 216 217 219 220 221 227 232
246 248 244 241 237 230 224 220 217 215 213 211 208 204 205 206 208 207 202 201 201 201 200 200 203 205 204 207 207 206 208 210 213 213 214 217 216 216 217 217 222 228
236 242 237 231 229 225 220 215 211 208 208 207 205 204 203 205 211 210 202 201 202 202 202 200 201 204 204 207 209 209 210 214 217 217 216 216 215 215 217 217 219 222
230 240 230 222 221 219 213 207 204 203 204 206 205 204 204 206 212 211 204 202 202 203 203 201 201 205 205 205 207 209 212 215 217 215 215 216 215 216 217 217 216 216
237 240 226 218 216 215 209 203 202 203 204 205 204 203 204 207 215 215 209 203 201 203 204 202 201 204 205 204 205 208 212 216 215 212 214 216 215 215 215 213 211 211
243 240 222 215 215 213 206 201 201 203 204 206 205 205 205 208 216 219 214 210 206 205 204 203 202 203 204 204 204 205 209 212 211 210 214 215 213 212 213 211 210 210
243 235 217 211 215 213 206 201 200 202 205 208 207 206 205 208 216 219 217 216 211 204 204 203 202 202 203 204 203 204 208 210 209 210 213 214 212 213 214 213 210 208
241 228 213 210 212 211 207 203 202 203 205 206 206 205 204 208 215 216 214 214 210 204 204 204 201 201 202 203 203 204 208 208 207 209 212 214 215 215 215 214 209 204
242 232 219 216 212 208 208 207 205 205 202 201 204 204 204 207 209 209 207 206 206 205 204 201 198 198 199 201 202 203 204 205 204 205 208 212 216 216 215 212 207 202
244 239 230 224 216 209 209 209 206 202 199 199 202 203 205 206 202 203 203 201 201 202 200 195 193 195 196 197 198 197 197 197 196 196 195 197 207 213 214 214 211 206
245 242 240 235 225 215 212 210 204 199 197 199 203 204 203 203 203 203 199 197 197 197 195 191 186 186 186 185 186 185 186 187 187 186 183 185 201 209 212 213 211 208
246 244 242 238 229 219 213 208 202 198 197 200 206 206 202 202 205 202 196 195 196 193 190 187 183 180 180 181 183 184 187 190 189 187 184 189 202 206 211 215 213 209
250 246 241 236 229 220 212 205 201 198 196 201 206 204 202 204 203 198 195 195 193 189 187 187 184 181 181 185 187 189 193 193 189 185 181 186 198 202 209 218 215 211
257 246 241 237 228 219 211 205 202 200 198 203 206 202 200 203 199 196 195 190 187 187 188 188 187 184 185 189 189 189 191 189 186 183 180 186 197 199 200 207 208 208
275 256 246 240 226 216 212 206 203 202 201 204 207 202 197 196 193 190 188 185 185 188 189 189 188 187 188 192 192 190 189 189 189 187 187 193 198 199 199 198 194 191
290 278 262 248 229 216 212 208 204 200 198 203 208 205 196 190 189 185 182 182 185 188 190 190 190 189 190 195 198 195 191 193 196 194 193 197 197 194 191 182 174 168
296 288 273 259 238 218 210 208 202 198 197 200 206 205 195 187 188 186 181 182 184 186 188 189 190 191 191 195 201 200 198 198 201 199 194 193 195 192 184 173 166 164
309 289 276 274 250 223 212 205 200 198 198 198 202 205 195 186 188 188 183 183 185 186 188 187 187 190 190 191 197 202 202 201 201 199 193 189 191 191 187 181 177 179
320 288 265 272 256 226 211 203 198 197 196 196 201 202 194 186 189 189 185 185 187 187 188 185 185 189 190 189 193 194 194 194 195 194 192 190 189 187 187 187 188 192
322 284 238 244 247 228 209 200 197 194 193 197 199 196 190 188 190 191 190 189 189 189 189 186 185 188 188 188 192 191 188 188 190 193 195 196 195 194 194 193 194 197
325 288 231 221 223 217 205 197 195 192 194 199 194 188 188 190 190 192 193 191 190 191 191 189 186 186 187 188 192 196 194 192 191 191 195 197 197 198 199 199 199 200
336 291 229 210 206 205 199 196 196 192 193 196 190 185 189 189 186 190 191 189 191 192 192 191 187 185 188 190 193 197 198 196 195 195 197 198 197 197 198 198 198 198
6 327 219 202 196 194 194 195 195 190 187 190 187 185 187 185 181 184 186 185 187 189 188 189 186 182 185 190 192 195 197 197 200 204 205 203 200 199 198 199 200 199
39 36 39 189 187 181 178 182 187 185 183 184 183 182 184 183 179 181 182 181 182 184 184 185 183 178 179 183 185 187 191 197 203 207 209 204 199 196 191 188 191 194
58 58 58 67 121 160 161 163 170 173 171 175 178 179 181 181 178 178 178 176 177 179 179 179 178 175 172 174 178 178 182 192 197 201 204 199 188 183 181 178 183 196